When you browse on this site, cookies collect data to enhance your experience and personalize the content and advertising you see.
Visit our Privacy Policy to learn more. By continuing to use the site, you agree to this use of cookies and data.
  • In Latvia
  • List of Countries
  • For 7 days
  • Water Temperature
  • Weather Map
  • Weather Widgets
  • user-avatar
    Login

    Hourly Weather Kerns

    Today, 23 September, Monday

    Time Temperature Precipitation Wind Pressure Humidity
    00:00 +20°C° 0.1 mm 4 mps 764 mmHg 95%
    01:00 +20°C° 0.1 mm 4 mps 764 mmHg 96%
    02:00 +20°C° 0.1 mm 4 mps 764 mmHg 96%
    03:00 +20°C° 0.1 mm 4 mps 764 mmHg 96%
    04:00 +20°C° 0 mm 4 mps 764 mmHg 97%
    05:00 +20°C° 0.1 mm 4 mps 764 mmHg 95%
    06:00 +21°C° 0.1 mm 4 mps 764 mmHg 94%
    07:00 +21°C° 0.1 mm 4 mps 765 mmHg 93%
    08:00 +23°C° 0.2 mm 4 mps 765 mmHg 85%
    09:00 +25°C° 0.2 mm 5 mps 764 mmHg 77%
    10:00 +27°C° 0 mm 5 mps 765 mmHg 66%
    11:00 +28°C° 0.2 mm 5 mps 764 mmHg 65%
    12:00 +28°C° 0.2 mm 5 mps 763 mmHg 64%
    13:00 +28°C° 0.2 mm 5 mps 763 mmHg 63%
    14:00 +28°C° 0 mm 5 mps 763 mmHg 61%
    15:00 +28°C° 0 mm 5 mps 762 mmHg 60%
    16:00 +28°C° 0 mm 5 mps 763 mmHg 59%
    17:00 +26°C° 0 mm 5 mps 763 mmHg 69%
    18:00 +23°C° 0 mm 5 mps 763 mmHg 80%
    19:00 +21°C° 0 mm 4 mps 763 mmHg 91%
    20:00 +21°C° 0 mm 4 mps 764 mmHg 93%
    21:00 +20°C° 0 mm 4 mps 764 mmHg 94%
    22:00 +20°C° 0 mm 4 mps 765 mmHg 96%
    23:00 +19°C° 0 mm 4 mps 764 mmHg 96%

    Tomorrow, 24 September, Tuesday

    Time Temperature Precipitation Wind Pressure Humidity
    00:00 +19°C° 0 mm 4 mps 764 mmHg 96%
    01:00 +19°C° 0 mm 4 mps 763 mmHg 97%
    02:00 +19°C° 0 mm 4 mps 763 mmHg 96%
    03:00 +19°C° 0 mm 4 mps 763 mmHg 96%
    04:00 +19°C° 0 mm 4 mps 763 mmHg 96%
    05:00 +20°C° 0.1 mm 4 mps 763 mmHg 95%
    06:00 +20°C° 0.1 mm 4 mps 763 mmHg 94%
    07:00 +21°C° 0.1 mm 4 mps 763 mmHg 93%
    08:00 +23°C° 0.1 mm 5 mps 763 mmHg 84%
    09:00 +26°C° 0.1 mm 5 mps 763 mmHg 74%
    10:00 +27°C° 0.1 mm 5 mps 764 mmHg 65%
    11:00 +29°C° 0 mm 6 mps 763 mmHg 59%
    12:00 +30°C° 0 mm 6 mps 763 mmHg 54%
    13:00 +32°C° 0 mm 6 mps 762 mmHg 48%
    14:00 +30°C° 0.1 mm 6 mps 762 mmHg 51%
    15:00 +30°C° 0.1 mm 6 mps 762 mmHg 54%
    16:00 +29°C° 0.1 mm 6 mps 762 mmHg 56%
    17:00 +27°C° 0.2 mm 6 mps 762 mmHg 67%
    18:00 +25°C° 0.2 mm 5 mps 763 mmHg 78%
    19:00 +22°C° 0.2 mm 5 mps 763 mmHg 90%
    20:00 +22°C° 0.1 mm 5 mps 764 mmHg 92%
    21:00 +21°C° 0.1 mm 5 mps 764 mmHg 94%
    22:00 +21°C° 0.1 mm 5 mps 764 mmHg 96%
    23:00 +21°C° 0.1 mm 5 mps 764 mmHg 96%

    Day after tomorrow, 25 September, Wednesday

    Time Temperature Precipitation Wind Pressure Humidity
    00:00 +21°C° 0.1 mm 5 mps 763 mmHg 95%
    01:00 +21°C° 0.1 mm 5 mps 763 mmHg 94%
    02:00 +21°C° 0.1 mm 5 mps 763 mmHg 95%
    03:00 +20°C° 0.1 mm 5 mps 763 mmHg 96%
    04:00 +20°C° 0.1 mm 4 mps 763 mmHg 96%
    05:00 +20°C° 0.1 mm 5 mps 763 mmHg 95%
    06:00 +21°C° 0.1 mm 5 mps 763 mmHg 94%
    07:00 +21°C° 0.1 mm 5 mps 764 mmHg 92%
    08:00 +23°C° 0.1 mm 5 mps 764 mmHg 84%
    09:00 +26°C° 0.1 mm 5 mps 764 mmHg 75%
    10:00 +27°C° 0.1 mm 6 mps 764 mmHg 66%
    11:00 +28°C° 0 mm 6 mps 763 mmHg 59%
    12:00 +30°C° 0 mm 6 mps 763 mmHg 52%
    13:00 +32°C° 0 mm 6 mps 762 mmHg 45%
    14:00 +30°C° 0 mm 6 mps 762 mmHg 47%
    15:00 +29°C° 0 mm 6 mps 762 mmHg 48%
    16:00 +29°C° 0 mm 6 mps 762 mmHg 50%
    17:00 +27°C° 0 mm 6 mps 762 mmHg 60%
    18:00 +25°C° 0 mm 5 mps 763 mmHg 71%
    19:00 +22°C° 0 mm 5 mps 763 mmHg 81%
    20:00 +21°C° 0 mm 5 mps 764 mmHg 85%
    21:00 +20°C° 0 mm 5 mps 764 mmHg 89%
    22:00 +20°C° 0 mm 5 mps 764 mmHg 92%
    23:00 +20°C° 0.1 mm 5 mps 764 mmHg 93%

    26 September, Thursday

    Time Temperature Precipitation Wind Pressure Humidity
    00:00 +20°C° 0.1 mm 5 mps 763 mmHg 94%
    01:00 +20°C° 0.1 mm 4 mps 763 mmHg 95%
    02:00 +20°C° 0.2 mm 5 mps 763 mmHg 95%
    03:00 +20°C° 0.2 mm 5 mps 763 mmHg 95%
    04:00 +20°C° 0.2 mm 5 mps 762 mmHg 96%
    05:00 +20°C° 0.1 mm 5 mps 763 mmHg 94%
    06:00 +21°C° 0.1 mm 5 mps 763 mmHg 92%
    07:00 +21°C° 0.1 mm 5 mps 764 mmHg 90%
    08:00 +23°C° 0 mm 5 mps 764 mmHg 79%
    09:00 +26°C° 0 mm 5 mps 764 mmHg 68%
    10:00 +28°C° 0 mm 5 mps 764 mmHg 57%
    11:00 +29°C° 0 mm 6 mps 763 mmHg 54%
    12:00 +30°C° 0 mm 6 mps 762 mmHg 52%
    13:00 +32°C° 0 mm 6 mps 762 mmHg 49%
    14:00 +30°C° 0 mm 6 mps 762 mmHg 52%
    15:00 +29°C° 0 mm 6 mps 761 mmHg 54%
    16:00 +29°C° 0 mm 6 mps 761 mmHg 56%
    17:00 +27°C° 0 mm 5 mps 762 mmHg 67%
    18:00 +25°C° 0 mm 5 mps 762 mmHg 77%
    19:00 +22°C° 0 mm 4 mps 763 mmHg 88%
    20:00 +21°C° 0.1 mm 4 mps 763 mmHg 91%
    21:00 +21°C° 0.1 mm 4 mps 763 mmHg 93%
    22:00 +20°C° 0.1 mm 4 mps 764 mmHg 96%
    23:00 +20°C° 0.1 mm 4 mps 763 mmHg 96%

    27 September, Friday

    Time Temperature Precipitation Wind Pressure Humidity
    00:00 +20°C° 0.1 mm 4 mps 763 mmHg 96%
    01:00 +20°C° 0.1 mm 4 mps 763 mmHg 96%
    02:00 +19°C° 0 mm 4 mps 763 mmHg 96%
    03:00 +19°C° 0 mm 4 mps 762 mmHg 97%
    04:00 +19°C° 0 mm 4 mps 762 mmHg 97%
    05:00 +20°C° 0 mm 4 mps 763 mmHg 95%
    06:00 +20°C° 0 mm 4 mps 763 mmHg 93%
    07:00 +21°C° 0 mm 4 mps 763 mmHg 91%
    08:00 +23°C° 0 mm 4 mps 763 mmHg 75%
    09:00 +27°C° 0 mm 5 mps 763 mmHg 60%
    10:00 +30°C° 0 mm 5 mps 763 mmHg 44%
    11:00 +30°C° 0 mm 5 mps 763 mmHg 44%
    12:00 +32°C° 0 mm 5 mps 762 mmHg 45%
    13:00 +33°C° 0 mm 5 mps 761 mmHg 45%
    14:00 +32°C° 0 mm 5 mps 761 mmHg 50%
    15:00 +30°C° 0 mm 5 mps 761 mmHg 54%
    16:00 +29°C° 0 mm 5 mps 761 mmHg 59%
    17:00 +27°C° 0 mm 5 mps 761 mmHg 69%
    18:00 +25°C° 0 mm 5 mps 762 mmHg 80%
    19:00 +22°C° 0 mm 4 mps 763 mmHg 91%
    20:00 +21°C° 0 mm 4 mps 763 mmHg 93%
    21:00 +21°C° 0 mm 4 mps 763 mmHg 94%
    22:00 +20°C° 0 mm 4 mps 764 mmHg 96%
    23:00 +20°C° 0 mm 4 mps 763 mmHg 95%

    28 September, Saturday

    Time Temperature Precipitation Wind Pressure Humidity
    00:00 +20°C° 0 mm 4 mps 763 mmHg 95%
    01:00 +20°C° 0 mm 3 mps 763 mmHg 95%
    02:00 +20°C° 0 mm 3 mps 762 mmHg 95%
    03:00 +20°C° 0 mm 3 mps 762 mmHg 95%
    04:00 +19°C° 0 mm 4 mps 762 mmHg 95%
    05:00 +20°C° 0 mm 4 mps 762 mmHg 94%
    06:00 +21°C° 0 mm 4 mps 763 mmHg 92%
    07:00 +21°C° 0 mm 4 mps 763 mmHg 91%
    08:00 +25°C° 0 mm 4 mps 763 mmHg 78%
    09:00 +27°C° 0 mm 4 mps 763 mmHg 64%
    10:00 +30°C° 0 mm 5 mps 763 mmHg 51%
    11:00 +32°C° 0 mm 5 mps 763 mmHg 48%
    12:00 +32°C° 0 mm 6 mps 762 mmHg 46%
    13:00 +33°C° 0 mm 6 mps 761 mmHg 43%
    14:00 +32°C° 0 mm 6 mps 761 mmHg 43%
    15:00 +32°C° 0 mm 5 mps 761 mmHg 43%
    16:00 +30°C° 0 mm 5 mps 760 mmHg 42%
    17:00 +28°C° 0 mm 5 mps 761 mmHg 54%
    18:00 +25°C° 0 mm 4 mps 762 mmHg 66%
    19:00 +22°C° 0 mm 4 mps 762 mmHg 78%
    20:00 +21°C° 0 mm 4 mps 763 mmHg 83%
    21:00 +20°C° 0 mm 4 mps 763 mmHg 89%
    22:00 +20°C° 0 mm 4 mps 763 mmHg 95%
    23:00 +20°C° 0 mm 4 mps 763 mmHg 95%
    Show more